STARLINK-34518

导读 | 星芒AI

STARLINK-34518 是 SpaceX Starlink 项目中的一颗低轨通信卫星,属于第三代星链卫星(v1.5 或 v2 版本)。该卫星于 2023 年发射,旨在为全球提供高速互联网服务。它运行在约 550 公里的轨道高度,配备先进相控阵天线和激光通信系统,以提升网络连接速度与稳定性。作为 Starlink 卫星群的一部分,STARLINK-34518 有助于扩大覆盖范围,支持偏远地区的互联网接入,并增强整体星座的冗余与性能。

基本信息
目录编号:
64480
目录名称:
STARLINK-34518
国际标识:
2025-133J
轨道中心:
EARTH
卫星名称:
STARLINK-34518
卫星全名:
STARLINK-34518
卫星状态:
在轨 (已飞行139 天)
发射日期:
2025-06-23 UTC
国别 :
美国 (US)
星等 :
--
轨道信息
数据来源 国际轨道数据
星历时间: 2025-11-08T15:36:18+0800
1天前
查看轨道信息
半长轴: 6825.288km
偏心率: 0.0001173
轨道倾角: 53.160°
近地点辐角 96.159°
升交点赤经 321.420°
平近点角 263.955°
近地点: 446.352km
远地点: 447.954km
周期: 93.528分钟
每日圈数: 15.396475
详细信息
使用方式:
暂无
2D轨道图
3D轨道图
轨道高度分析图
轨道倾角分析图
轨道综合分析图
查看轨道综合分析图